Location: Huntington Park
(33.9817°N, 118.2251°W)
Time: 18:54:40
(UTC+00:00)

Daily predictions for brighter satellites

Satellite Brightness Start Highest point End
(mag) Time Altitude Azimuth Time Altitude Azimuth Time Altitude Azimuth
BREEZE-M DEB (TANK) 3.7 12:02:13 10° W 12:04:09 18° SSW 12:07:20 10° S
Cosmos 1328 Rocket 4.2 12:00:38 10° NNW 12:04:37 35° W 12:08:33 10° SSW
Cosmos 1340 3.0 12:01:54 10° SSW 12:05:31 45° W 12:09:08 10° N
Cosmos 158 Rocket 3.9 12:00:35 10° SSW 12:05:40 80° WNW 12:10:38 10° NNE
STARLINK-1034 3.9 12:02:51 10° WSW 12:06:56 59° NW 12:11:02 10° NE
CZ-4C R/B 4.4 12:05:07 10° SSW 12:07:57 21° W 12:10:46 10° NW
Cosmos 2344 3.7 12:00:41 10° SW 12:08:21 69° WNW 12:16:02 10° NNE
Cosmos 1680 Rocket 3.7 12:05:06 10° SSW 12:10:16 61° WNW 12:15:31 10° N
PSLV R/B 3.9 12:06:39 10° N 12:10:40 47° WNW 12:14:40 10° SSW
SL-24 R/B - RUBIN 2 4.4 12:05:54 10° SSW 12:11:28 86° ESE 12:17:48 10° NNE
STARLINK-1068 4.0 12:07:51 10° WSW 12:11:54 53° NW 12:15:58 10° NE
Cosmos 1933 4.3 12:08:35 10° NNW 12:12:05 29° W 12:15:33 10° SSW
